Temperature
12 13 12 12 13 12 12 12 12 12 12 14 14 13 14 15 15 15 14 14 13 13 12 11 10 10 9 9 8 8 7 7 6 6 5 5 4 4 4 3 3 2 2 2
13 13 13 13 13 12 12 12 12 12 12 13 14 14 14 14 14 14 14 14 13 13 12 11 10 9 9 8 8 7 6 6 5 5 5 4 4 3 3 3 2 2 1 1
11 13 13 12 13 13 12 12 12 12 13 13 13 12 13 14 14 14 14 13 13 12 11 11 10 9 8 8 7 6 6 5 5 4 4 4 3 3 3 2 2 1 1 0
10 11 11 12 13 13 13 13 12 12 12 12 12 13 13 14 14 14 13 13 12 11 11 10 9 8 8 7 6 6 5 5 4 4 4 3 3 2 2 1 1 1 0 -0
8 9 10 11 13 13 12 12 12 12 11 11 11 11 11 13 13 13 13 12 12 11 10 9 8 8 7 6 6 5 5 4 4 3 3 3 2 2 1 1 0 0 -0 -1
7 9 10 12 13 14 13 12 12 11 10 9 10 9 10 12 12 12 12 11 10 10 9 8 8 7 6 6 5 5 4 4 3 3 2 2 2 1 1 0 -0 -1 -1 -1
7 8 9 11 12 13 12 12 13 12 12 10 10 11 12 12 11 11 10 10 9 9 8 7 7 6 6 5 5 4 4 3 3 2 2 1 1 0 0 -0 -1 -1 -1 -1
7 8 9 11 10 11 12 12 13 13 13 12 12 12 12 11 10 10 9 9 8 7 7 6 6 5 5 4 4 3 3 3 2 2 1 1 0 -0 -0 -1 -1 -1 -2 -2
9 10 11 12 12 13 13 13 13 13 13 12 12 11 11 10 9 9 8 8 7 7 6 6 5 4 4 4 3 3 2 2 2 1 1 0 -0 -1 -1 -1 -2 -2 -3 -3
8 8 10 11 12 13 13 13 13 12 12 12 11 11 10 9 8 8 7 7 6 6 5 5 4 4 3 3 2 2 2 2 1 1 0 -0 -1 -1 -2 -2 -3 -3 -4 -5
8 9 10 11 12 12 12 12 12 11 11 11 10 10 9 8 7 7 6 6 5 5 4 4 3 3 3 2 2 1 1 1 0 -0 -1 -1 -1 -2 -2 -3 -4 -5 -5 -6
9 10 9 11 12 12 12 11 11 11 10 10 9 9 8 7 7 6 5 5 4 4 3 3 3 3 2 2 1 1 0 0 -0 -1 -1 -2 -2 -2 -3 -4 -4 -5 -6 -6
13 12 12 12 12 11 11 11 10 10 9 9 8 7 7 6 6 5 4 4 3 3 3 3 2 2 2 1 1 0 -0 -1 -1 -2 -2 -3 -3 -4 -4 -4 -5 -6 -6 -6
12 12 10 11 11 10 10 9 9 8 8 7 7 6 6 5 4 4 3 3 3 2 2 2 2 1 1 0 -0 -1 -1 -2 -2 -3 -3 -4 -4 -5 -6 -6 -6 -6 -6 -7
11 11 11 10 10 9 9 8 7 7 6 6 5 5 4 4 4 3 3 2 2 2 2 1 1 1 0 -0 -1 -1 -2 -2 -3 -3 -4 -5 -5 -6 -6 -7 -7 -7 -7 -7
9 9 9 9 8 8 7 7 6 6 5 5 4 4 3 3 3 2 2 2 2 1 1 1 0 -0 -1 -1 -2 -2 -3 -3 -4 -5 -5 -6 -6 -7 -7 -7 -8 -8 -8 -8
8 7 7 7 6 6 6 5 5 5 4 3 3 3 2 2 2 2 1 1 1 1 0 -0 -1 -1 -1 -2 -3 -3 -4 -4 -5 -6 -6 -7 -7 -7 -8 -8 -8 -8 -8 -9
7 8 7 7 6 5 5 4 4 3 3 3 2 2 2 1 1 1 1 1 0 0 -0 -1 -1 -2 -2 -3 -4 -4 -5 -5 -6 -6 -7 -7 -8 -8 -8 -8 -9 -9 -9 -9
6 6 5 5 5 4 4 3 3 2 2 2 1 1 1 1 0 0 -0 -0 -0 -1 -1 -2 -2 -2 -3 -4 -5 -5 -6 -6 -7 -7 -8 -8 -8 -8 -9 -9 -9 -10 -10 -10
4 4 4 4 3 3 3 2 2 2 1 1 1 1 0 0 -0 -0 -1 -1 -1 -2 -2 -3 -3 -4 -4 -5 -6 -6 -7 -7 -8 -8 -8 -9 -9 -9 -10 -10 -10 -10 -10 -11
3 3 3 2 2 2 2 1 1 1 1 0 0 -0 -0 -0 -1 -1 -2 -2 -2 -3 -3 -4 -4 -5 -5 -6 -7 -7 -8 -8 -8 -9 -9 -10 -10 -10 -10 -11 -11 -11 -11 -11
2 2 2 1 1 1 1 1 0 0 0 -0 -0 -1 -1 -1 -2 -2 -2 -3 -3 -4 -4 -5 -5 -6 -7 -7 -8 -8 -9 -9 -9 -10 -10 -10 -11 -11 -11 -11 -11 -11 -12 -12
1 1 1 1 1 0 0 -0 -0 -0 -1 -1 -1 -2 -2 -2 -3 -3 -3 -4 -4 -5 -5 -6 -6 -7 -8 -8 -9 -9 -9 -10 -10 -10 -11 -11 -11 -12 -12 -12 -12 -12 -12 -12
0 0 0 0 -0 -0 -0 -1 -1 -1 -1 -2 -2 -2 -3 -3 -3 -4 -4 -5 -5 -6 -6 -6 -7 -8 -9 -9 -9 -10 -10 -10 -11 -11 -11 -12 -12 -12 -12 -12 -12 -12 -13 -13
-0 -0 -0 -1 -1 -1 -1 -1 -2 -2 -2 -2 -2 -3 -3 -4 -4 -5 -5 -5 -6 -6 -7 -7 -8 -9 -9 -10 -10 -10 -11 -11 -12 -12 -12 -12 -12 -12 -13 -13 -13 -13 -13 -13
-1 -1 -1 -1 -2 -2 -2 -2 -2 -3 -3 -3 -3 -3 -4 -4 -5 -5 -6 -6 -7 -7 -8 -8 -9 -9 -10 -10 -11 -11 -11 -12 -12 -12 -12 -13 -13 -13 -13 -13 -13 -13 -13 -13
-1 -2 -2 -2 -2 -3 -3 -3 -3 -4 -4 -4 -4 -4 -5 -6 -6 -7 -7 -7 -8 -8 -9 -9 -10 -10 -11 -11 -11 -12 -12 -12 -12 -13 -13 -13 -13 -13 -13 -13 -13 -13 -13 -13
Wind_Speed
7 5 6 8 8 10 12 11 10 9 10 11 9 8 8 6 6 7 8 10 12 12 11 10 10 9 9 8 7 7 6 5 5 5 4 5 5 6 7 7 8 8 9 9
5 6 7 6 8 10 11 10 11 10 11 10 6 4 5 5 6 8 9 10 10 11 12 12 12 10 9 8 7 6 6 5 4 4 5 6 7 7 7 8 8 8 9 10
4 3 2 7 10 11 8 8 10 13 15 7 5 7 7 7 7 8 8 8 10 11 12 12 11 10 10 8 6 6 5 4 4 5 5 7 7 7 8 8 8 9 10 10
4 4 7 9 5 8 9 10 10 9 7 6 8 4 2 4 6 7 7 8 9 9 9 8 8 8 8 7 6 5 4 4 4 5 6 7 7 8 9 8 8 9 10 11
5 5 7 8 6 6 8 8 7 9 7 3 4 4 3 2 4 5 6 6 7 8 8 8 8 8 8 6 5 4 4 5 5 6 7 7 8 9 8 8 9 9 9 10
5 5 8 9 5 3 4 7 6 7 8 7 7 3 5 3 3 4 6 6 7 8 7 8 7 7 7 5 4 4 5 6 6 6 7 8 9 9 8 8 9 9 10 9
6 7 8 9 3 6 6 8 4 7 8 10 8 6 4 5 5 5 6 7 8 9 8 7 6 7 6 4 5 5 5 5 6 6 7 8 8 7 8 8 9 9 10 10
7 6 10 6 8 9 9 3 5 6 7 8 6 4 6 6 7 8 7 7 8 8 6 5 5 6 4 4 5 4 5 6 7 7 7 6 7 8 8 8 9 10 10 11
10 10 6 7 9 6 6 6 6 6 6 7 7 6 7 6 7 7 7 7 5 7 6 3 3 4 4 4 4 4 5 6 7 7 7 7 7 9 8 8 8 9 9 11
5 8 6 6 5 5 6 6 6 6 7 8 7 7 7 7 7 6 5 5 5 6 5 3 2 3 4 4 4 4 6 7 7 7 8 7 6 7 7 8 8 9 10 11
6 5 2 4 7 7 5 5 6 5 6 7 8 7 8 7 7 6 5 4 4 5 4 3 3 3 4 4 4 5 7 7 7 7 7 8 7 7 9 8 10 12 10 10
8 9 8 8 7 9 8 7 8 7 5 4 6 7 7 6 6 6 5 4 4 3 3 3 3 5 5 5 4 5 7 7 6 6 7 7 8 10 14 15 21 22 21 20
6 5 6 4 5 7 8 7 7 7 7 6 5 6 7 5 5 5 5 4 4 3 3 3 4 6 6 6 5 6 7 8 6 6 7 8 8 9 12 14 18 20 21 23
6 7 5 5 5 6 7 7 7 6 6 6 6 6 7 6 5 5 4 3 3 2 3 4 5 7 7 6 6 8 8 9 9 7 7 8 8 9 10 12 14 11 14 20
6 5 6 6 7 7 7 8 8 7 6 6 6 7 7 7 5 4 2 1 1 2 4 5 6 8 8 7 7 8 8 7 7 7 7 8 9 9 10 11 12 13 11 12
6 6 8 9 9 8 7 8 8 7 6 6 6 6 6 5 4 2 1 1 2 4 6 6 8 9 8 8 8 7 7 13 12 8 7 8 8 10 11 11 12 12 12 11
9 8 8 8 8 8 7 7 8 8 7 7 6 6 5 4 2 1 2 3 4 6 7 7 9 9 8 8 8 7 7 10 15 11 8 9 10 10 11 11 12 12 12 14
7 8 9 10 10 9 8 8 8 8 6 6 6 5 4 2 2 3 4 5 5 7 8 8 8 8 8 8 7 7 7 8 8 9 9 9 11 10 10 11 12 13 12 13
7 8 9 9 10 10 8 8 7 7 6 6 5 3 2 2 3 4 4 5 7 8 8 8 13 10 9 10 11 7 8 9 9 9 9 14 14 9 10 11 12 12 12 12
9 10 11 10 9 9 9 8 7 6 5 4 3 1 2 3 4 4 5 6 7 7 8 10 10 9 9 10 14 7 8 9 10 10 10 10 10 11 11 11 12 12 11 11
11 11 12 11 10 9 8 7 6 5 3 2 2 2 4 5 5 5 5 7 8 8 9 13 9 7 8 11 15 8 8 9 10 10 10 10 11 12 12 11 12 12 12 11
9 11 11 10 9 7 5 5 4 3 2 0 1 3 4 6 6 6 7 7 8 12 9 7 7 12 15 18 8 7 8 9 9 9 9 10 11 11 12 11 11 12 11 10
9 9 9 8 7 6 4 3 3 1 0 2 3 4 5 6 5 6 8 6 6 13 11 8 13 21 23 14 7 8 8 9 10 10 10 10 11 11 11 12 11 11 10 10
9 8 7 6 5 5 3 1 1 1 2 4 5 5 6 6 6 6 7 12 16 18 10 14 21 23 22 9 7 8 9 10 10 10 11 10 10 10 11 11 11 11 11 12
8 7 6 5 4 2 1 1 2 3 3 4 6 6 6 5 6 7 7 9 15 17 10 14 21 22 14 9 9 9 9 10 12 11 10 10 10 11 11 11 11 11 11 11
5 5 4 3 2 1 0 1 2 3 4 5 6 5 5 5 7 8 8 9 11 16 12 10 11 14 10 10 10 10 10 12 13 11 11 11 12 11 11 11 12 12 11 11
5 4 3 2 1 0 1 1 3 4 4 6 8 7 6 7 7 8 10 10 10 10 10 10 9 9 10 10 10 11 11 10 11 11 11 11 11 11 11 12 11 11 11 11
Wind_Direction
218 221 177 201 204 190 199 206 210 232 233 249 246 239 238 233 215 197 197 192 189 186 180 173 169 169 168 170 170 166 168 183 210 227 238 250 261 268 272 274 274 275 279 281
213 218 208 226 224 207 215 220 229 249 260 248 245 217 216 213 201 202 204 198 190 180 174 174 172 169 166 169 171 165 175 201 223 238 251 259 265 270 274 276 276 276 276 277
212 214 165 246 224 208 210 212 201 229 246 234 216 217 217 213 204 208 207 194 185 180 178 174 170 165 168 169 163 166 185 212 232 244 258 265 270 274 275 276 275 277 277 276
163 144 220 240 235 205 215 237 219 228 243 220 212 205 202 196 197 209 203 190 180 169 161 157 154 153 152 152 158 171 197 228 244 251 262 271 275 275 275 273 274 276 278 278
151 199 261 286 251 195 203 253 229 223 229 184 124 84 328 271 203 200 190 172 162 155 148 143 147 148 143 149 158 180 219 241 251 254 263 272 275 276 277 278 278 277 277 278
148 179 224 239 227 180 147 262 241 191 184 162 134 152 251 217 154 138 132 132 132 129 125 133 142 139 140 155 173 215 236 248 256 257 261 268 272 276 277 277 279 283 283 280
175 209 248 246 206 122 176 240 199 168 169 167 182 198 190 141 129 131 125 124 124 123 128 140 143 137 147 170 212 234 247 259 265 266 266 269 273 275 281 283 286 287 288 285
168 197 247 219 148 183 211 170 151 157 166 175 184 148 142 145 141 135 126 123 125 124 127 136 142 143 164 212 236 250 260 268 272 274 276 280 278 282 283 286 290 292 293 293
189 210 233 186 193 198 160 160 168 164 168 161 161 170 165 159 152 144 137 134 128 132 133 142 155 158 193 237 252 263 270 273 276 279 277 276 278 285 290 288 288 294 294 296
215 249 239 214 198 174 172 170 171 165 160 162 172 174 168 160 156 150 142 140 133 136 146 172 195 205 226 252 262 265 272 277 279 281 284 283 279 278 283 285 287 291 292 295
217 246 198 219 202 185 166 149 143 145 162 171 167 170 170 166 163 157 148 144 145 155 175 205 229 250 258 265 271 274 276 278 281 278 280 286 282 275 281 271 276 290 291 290
210 206 185 211 202 176 167 174 168 157 152 153 164 166 158 157 156 152 150 147 151 168 196 229 251 268 276 277 272 273 280 281 279 280 283 284 290 295 289 289 294 296 297 297
195 172 171 172 159 165 170 172 164 158 155 147 142 143 143 140 142 140 142 150 174 201 224 245 263 275 280 281 274 268 271 277 279 278 283 286 288 293 300 301 297 296 298 300
156 129 137 169 169 154 140 131 120 111 113 122 123 121 122 119 125 135 154 178 197 225 250 261 272 277 279 278 274 272 272 279 283 275 277 281 283 284 288 295 302 299 296 298
174 163 158 146 127 122 120 119 116 115 111 103 108 118 123 128 139 154 169 183 241 271 274 276 278 280 284 282 277 275 276 275 276 273 273 277 281 284 286 288 291 295 296 297
143 118 124 134 141 137 130 132 134 138 130 123 121 123 125 128 133 144 207 241 259 273 278 279 277 280 286 285 280 278 275 285 293 287 281 284 284 286 289 289 291 292 293 295
143 153 156 157 156 150 147 146 145 143 136 133 135 128 119 114 114 251 278 276 264 267 272 273 275 282 285 281 277 276 275 284 293 292 282 284 285 285 286 288 291 292 291 294
168 168 163 160 155 145 135 131 132 133 135 137 130 124 127 149 219 261 278 291 294 289 280 272 274 283 280 278 276 273 275 277 277 278 282 283 285 285 288 291 292 292 294 297
126 131 132 133 135 133 130 128 128 126 126 128 131 144 178 224 248 266 280 287 288 288 285 283 300 301 287 286 295 277 275 280 283 283 283 290 295 291 290 290 291 292 294 296
106 111 112 111 110 116 119 121 120 118 121 126 132 156 258 271 272 275 277 273 265 261 271 286 291 283 281 283 295 280 276 281 286 290 291 291 292 293 292 291 292 293 294 294
111 111 110 110 105 104 111 118 120 122 123 132 166 236 266 279 280 277 277 286 281 274 280 292 293 284 287 290 296 284 282 285 289 291 292 293 293 293 293 292 292 295 296 296
111 112 110 110 109 103 96 99 108 115 112 123 272 272 280 286 287 281 263 262 277 293 298 283 280 291 300 302 293 287 286 288 290 290 289 289 290 292 292 292 292 294 294 292
111 110 110 111 113 110 94 87 91 101 248 284 285 283 278 277 277 282 291 280 282 297 303 285 295 302 305 305 293 289 288 288 288 289 288 287 287 288 290 292 292 292 290 289
109 106 105 104 102 98 88 60 21 334 290 287 279 275 276 284 283 265 266 294 305 305 299 297 304 306 310 306 292 288 287 287 286 285 285 285 285 286 287 288 289 288 287 288
111 109 108 107 100 100 90 350 339 319 305 293 287 282 272 261 273 287 286 289 300 306 298 301 305 308 308 294 290 288 287 285 287 290 287 289 289 288 287 287 287 288 288 289
110 111 110 110 123 144 264 303 298 299 302 302 299 292 287 283 282 288 292 291 290 300 302 297 296 299 296 291 290 289 287 291 293 291 287 287 287 286 288 288 287 288 288 288
97 93 88 72 42 5 288 282 287 294 295 296 299 297 294 296 295 295 295 297 297 297 296 296 295 292 291 289 289 288 287 286 286 285 285 286 286 287 288 287 289 289 288 287
Height
1490 1487 1492 1491 1491 1494 1498 1498 1503 1497 1493 1485 1481 1480 1479 1479 1479 1480 1482 1484 1486 1488 1491 1495 1499 1503 1506 1509 1511 1512 1513 1514 1514 1514 1513 1511 1510 1508 1505 1502 1499 1495 1491 1487
1486 1485 1487 1487 1486 1489 1490 1490 1492 1490 1486 1476 1476 1476 1476 1476 1477 1478 1479 1480 1482 1485 1488 1492 1495 1499 1503 1505 1508 1509 1510 1510 1510 1509 1508 1506 1505 1502 1499 1496 1492 1489 1484 1480
1493 1485 1486 1491 1483 1483 1483 1481 1482 1484 1476 1472 1474 1474 1474 1474 1474 1475 1476 1478 1480 1482 1485 1488 1493 1497 1500 1502 1504 1505 1506 1506 1506 1505 1503 1501 1499 1496 1493 1489 1485 1481 1477 1473
1493 1491 1497 1482 1471 1472 1474 1472 1472 1471 1469 1468 1469 1470 1471 1472 1473 1474 1475 1476 1478 1480 1483 1487 1491 1494 1497 1499 1501 1501 1502 1502 1501 1499 1498 1495 1493 1490 1486 1482 1478 1473 1469 1464
1496 1495 1489 1478 1469 1468 1472 1471 1466 1466 1466 1467 1468 1470 1471 1471 1472 1473 1474 1475 1476 1479 1482 1485 1489 1492 1494 1496 1497 1497 1497 1497 1496 1494 1492 1489 1486 1483 1479 1474 1470 1465 1461 1456
1493 1492 1491 1474 1463 1462 1467 1470 1461 1461 1463 1466 1468 1474 1471 1469 1470 1471 1472 1474 1476 1478 1481 1484 1487 1489 1491 1492 1493 1493 1493 1492 1490 1488 1486 1483 1479 1475 1471 1467 1462 1457 1452 1448
1487 1487 1480 1464 1460 1463 1474 1467 1458 1458 1460 1463 1465 1467 1467 1468 1469 1471 1472 1473 1476 1478 1480 1483 1485 1487 1488 1488 1489 1489 1488 1487 1485 1483 1480 1476 1472 1468 1464 1459 1453 1448 1443 1439
1483 1485 1478 1456 1459 1462 1459 1456 1456 1458 1459 1461 1463 1464 1465 1466 1468 1469 1471 1473 1475 1477 1479 1481 1483 1484 1484 1485 1485 1484 1483 1481 1479 1476 1473 1469 1465 1460 1456 1451 1445 1439 1434 1428
1462 1461 1451 1450 1450 1451 1452 1454 1455 1457 1459 1460 1461 1462 1463 1465 1467 1468 1470 1472 1474 1476 1478 1479 1480 1481 1481 1481 1480 1479 1477 1475 1472 1469 1466 1462 1457 1452 1447 1443 1437 1431 1425 1419
1455 1451 1447 1447 1448 1449 1451 1453 1454 1456 1457 1459 1459 1461 1462 1464 1465 1467 1469 1471 1473 1474 1476 1476 1477 1478 1477 1477 1475 1473 1471 1468 1465 1461 1458 1454 1450 1445 1440 1434 1429 1423 1418 1412
1449 1445 1444 1444 1445 1447 1449 1451 1453 1454 1455 1456 1458 1459 1460 1462 1464 1466 1468 1469 1471 1472 1473 1474 1474 1474 1473 1472 1469 1467 1464 1461 1458 1454 1450 1445 1441 1437 1432 1427 1423 1417 1411 1406
1441 1438 1440 1440 1442 1445 1447 1448 1450 1452 1453 1454 1456 1457 1458 1460 1462 1464 1466 1467 1469 1470 1470 1471 1470 1470 1469 1466 1464 1460 1457 1454 1450 1446 1441 1437 1432 1426 1422 1419 1414 1409 1405 1400
1431 1433 1435 1437 1439 1442 1444 1446 1448 1449 1451 1452 1453 1455 1457 1458 1461 1462 1464 1465 1466 1467 1467 1467 1466 1465 1463 1460 1457 1454 1450 1446 1442 1438 1433 1429 1424 1418 1411 1407 1404 1400 1396 1391
1429 1431 1433 1435 1437 1439 1441 1443 1445 1447 1449 1450 1452 1453 1455 1457 1459 1460 1462 1463 1464 1464 1463 1462 1461 1459 1457 1454 1450 1447 1443 1439 1435 1430 1425 1421 1416 1410 1405 1398 1392 1387 1385 1382
1426 1428 1430 1432 1434 1437 1438 1441 1443 1445 1446 1448 1450 1452 1454 1455 1457 1458 1460 1460 1460 1460 1459 1457 1455 1453 1451 1447 1443 1439 1435 1431 1426 1422 1417 1412 1408 1402 1397 1392 1386 1380 1375 1371
1422 1425 1427 1429 1431 1434 1436 1438 1440 1443 1445 1447 1449 1451 1452 1454 1455 1456 1457 1457 1456 1455 1454 1451 1449 1446 1443 1439 1435 1431 1427 1423 1418 1413 1408 1404 1399 1394 1389 1384 1379 1373 1368 1363
1418 1421 1423 1426 1428 1431 1433 1436 1439 1441 1443 1446 1448 1449 1451 1452 1453 1454 1454 1453 1452 1450 1448 1445 1442 1439 1436 1432 1427 1423 1418 1414 1410 1405 1400 1396 1391 1386 1381 1376 1371 1366 1361 1357
1415 1417 1420 1422 1425 1428 1432 1435 1438 1440 1442 1445 1446 1448 1449 1450 1450 1450 1449 1448 1446 1444 1442 1439 1435 1431 1428 1424 1419 1414 1410 1405 1400 1396 1391 1387 1382 1378 1373 1368 1363 1358 1352 1348
1412 1415 1418 1421 1425 1428 1431 1434 1437 1439 1442 1444 1445 1446 1447 1447 1446 1445 1444 1442 1439 1437 1434 1431 1428 1423 1419 1415 1411 1406 1401 1396 1392 1387 1383 1378 1374 1369 1365 1359 1354 1349 1345 1340
1411 1415 1418 1421 1425 1428 1431 1434 1437 1439 1441 1442 1443 1443 1443 1443 1442 1440 1438 1436 1434 1430 1426 1423 1419 1415 1411 1406 1402 1397 1393 1388 1384 1379 1374 1370 1365 1360 1355 1351 1346 1341 1336 1332
1412 1415 1418 1422 1425 1429 1432 1434 1436 1438 1439 1440 1440 1440 1439 1438 1437 1435 1432 1429 1427 1423 1419 1415 1411 1406 1402 1397 1393 1389 1385 1380 1375 1370 1366 1361 1356 1351 1346 1342 1337 1333 1328 1324
1413 1417 1420 1424 1427 1429 1432 1434 1436 1437 1437 1437 1437 1436 1435 1433 1431 1429 1426 1423 1418 1415 1410 1406 1402 1398 1393 1389 1385 1380 1375 1371 1366 1361 1356 1351 1346 1342 1337 1333 1329 1324 1320 1316
1416 1419 1422 1425 1428 1430 1432 1433 1434 1434 1434 1434 1433 1432 1430 1428 1425 1422 1418 1415 1411 1407 1402 1398 1393 1389 1385 1380 1375 1371 1366 1361 1356 1351 1347 1342 1337 1333 1329 1324 1320 1316 1312 1307
1418 1421 1424 1426 1428 1429 1431 1431 1432 1432 1431 1430 1429 1427 1424 1421 1418 1415 1411 1407 1403 1398 1393 1389 1385 1380 1376 1370 1366 1361 1356 1351 1346 1342 1337 1333 1329 1325 1320 1316 1312 1307 1303 1299
1419 1422 1424 1426 1427 1428 1429 1429 1429 1428 1427 1426 1424 1422 1419 1415 1411 1407 1403 1398 1394 1389 1384 1379 1375 1371 1366 1361 1356 1351 1346 1342 1337 1333 1329 1325 1320 1316 1312 1308 1303 1299 1295 1291
1420 1422 1424 1425 1426 1426 1426 1426 1425 1424 1422 1419 1417 1415 1412 1408 1404 1399 1394 1390 1385 1380 1375 1370 1365 1361 1356 1351 1347 1342 1337 1333 1329 1324 1320 1316 1311 1307 1303 1299 1295 1291 1287 1283
1420 1422 1423 1424 1424 1424 1423 1422 1421 1419 1416 1413 1410 1407 1404 1400 1395 1391 1386 1381 1376 1371 1366 1361 1357 1352 1347 1342 1338 1333 1329 1324 1320 1316 1311 1307 1303 1299 1295 1291 1287 1282 1278 1274